Location: �clusier
(49.9361°N, 2.7869°E)
Time: 08:40:59
(UTC+00:00)

Cosmos 1975 Rocket - Pass Details

Date: 16 June 2021
Orbit: 603 x 634 km, 82.5° (Epoch: 02 August)

Event Time Altitude Azimuth Distance (km) Brightness Sun altitude
Exits shadow 21:18:19 - 191° (S) 2,569 5.8 -9.4°
Reaches altitude 10° 21:19:49 10° 191° (SSW) 1,963 5.2 -9.5°
Maximum altitude 21:24:10 83° 279° (W) 627 3.1 -9.9°
Drops below altitude 10° 21:28:36 10° 9° (N) 1,998 6.4 -10.3°
Sets 21:30:51 0° 10° (N) 2,914 7.3 -10.5°
